,,,PA_Meas_PMT16A,,PR_Meas_QMR101_102,,RH_Meas_QMH101,,SR_Meas_QMS101,,TA_Meas_QMH101,,GenWind,,GenWind,
date,time,status,PA,status,PR,status,RH,status,SR,status,TA,status,DirAvg,status,SpdAvg,
2009-04-16, 00:00:05,VALID,999.864,VALID,0,VALID,92.3031,VALID,0,VALID,24.111,VALID,79,VALID,0.719531,
2009-04-16, 00:01:05,VALID,999.877,VALID,0,VALID,92.4557,VALID,0,VALID,24.1305,VALID,79,VALID,0.464844,
2009-04-16, 00:02:05,VALID,999.877,VALID,0,VALID,92.5091,VALID,0,VALID,24.1324,VALID,79,VALID,0.369922,
2009-04-16, 00:03:05,VALID,999.855,VALID,0,VALID,92.6999,VALID,0,VALID,24.1324,VALID,79,VALID,0.573047,
2009-04-16, 00:04:05,VALID,999.861,VALID,0,VALID,92.738,VALID,0,VALID,24.0915,VALID,79,VALID,0.451172,
2009-04-16, 00:05:05,VALID,999.841,VALID,0,VALID,92.7991,VALID,0,VALID,24.0933,VALID,78,VALID,0.378516,
2009-04-16, 00:06:05,VALID,999.818,VALID,0,VALID,92.8143,VALID,0,VALID,24.0915,VALID,78,VALID,0.360547,
2009-04-16, 00:07:05,VALID,999.798,VALID,0,VALID,92.8601,VALID,0,VALID,24.072,VALID,78,VALID,0.191016,
2009-04-16, 00:08:05,VALID,999.783,VALID,0,VALID,92.9135,VALID,0,VALID,24.0525,VALID,78,VALID,0.178516,
2009-04-16, 00:09:05,VALID,999.755,VALID,0,VALID,92.9288,VALID,0,VALID,24.0525,VALID,78,VALID,0.265234,
2009-04-16, 00:10:05,VALID,999.756,VALID,0,VALID,92.9974,VALID,0,VALID,24.0329,VALID,78,VALID,0.0347656,
2009-04-16, 00:11:05,VALID,999.736,VALID,0,VALID,92.8296,VALID,0,VALID,24.0134,VALID,78,VALID,0.317578,
2009-04-16, 00:12:05,VALID,999.716,VALID,0,VALID,92.8372,VALID,0,VALID,24.0134,VALID,78,VALID,0.0832031,
2009-04-16, 00:13:05,VALID,999.7,VALID,0,VALID,92.8677,VALID,0,VALID,23.9939,VALID,78,VALID,0.115234,
2009-04-16, 00:14:05,VALID,999.678,VALID,0,VALID,92.9288,VALID,0,VALID,23.9939,VALID,78,VALID,0.358594,
2009-04-16, 00:15:05,VALID,999.654,VALID,0,VALID,92.9669,VALID,0,VALID,23.9939,VALID,80,VALID,0.385156,
2009-04-16, 00:16:05,VALID,999.684,VALID,0,VALID,92.9288,VALID,0,VALID,24.0134,VALID,80,VALID,0.185937,
2009-04-16, 00:17:05,VALID,999.686,VALID,0,VALID,92.8983,VALID,0,VALID,24.0134,VALID,80,VALID,0.266016,
2009-04-16, 00:18:05,VALID,999.66,VALID,0,VALID,92.9745,VALID,0,VALID,24.0329,VALID,80,VALID,0.182812,
2009-04-16, 00:19:05,VALID,999.642,VALID,0,VALID,92.8906,VALID,0,VALID,24.0134,VALID,115,VALID,0.528516,
2009-04-16, 00:20:05,VALID,999.687,VALID,0,VALID,92.822,VALID,0,VALID,24.0134,VALID,137,VALID,0.750391,
2009-04-16, 00:21:05,VALID,999.656,VALID,0,VALID,92.7914,VALID,0,VALID,24.0543,VALID,137,VALID,0.694531,
2009-04-16, 00:22:05,VALID,999.682,VALID,0,VALID,92.822,VALID,0,VALID,24.0329,VALID,140,VALID,0.640625,
2009-04-16, 00:23:05,VALID,999.658,VALID,0,VALID,92.822,VALID,0,VALID,24.0543,VALID,140,VALID,0.603906,
2009-04-16, 00:24:05,VALID,999.651,VALID,0,VALID,92.8067,VALID,0,VALID,24.0525,VALID,140,VALID,0.440234,
2009-04-16, 00:25:05,VALID,999.633,VALID,0,VALID,92.6999,VALID,0,VALID,24.072,VALID,138,VALID,0.619922,
2009-04-16, 00:26:05,VALID,999.641,VALID,0,VALID,92.5702,VALID,0,VALID,24.0525,VALID,135,VALID,0.562891,
2009-04-16, 00:27:05,VALID,999.609,VALID,0,VALID,92.5931,VALID,0,VALID,24.0525,VALID,135,VALID,0.452344,
2009-04-16, 00:28:05,VALID,999.603,VALID,0,VALID,92.4252,VALID,0,VALID,24.0738,VALID,134,VALID,0.572656,
2009-04-16, 00:29:05,VALID,999.593,VALID,0,VALID,92.3718,VALID,0,VALID,24.0738,VALID,134,VALID,0.500781,
2009-04-16, 00:30:05,VALID,999.591,VALID,0,VALID,92.326,VALID,0,VALID,24.0738,VALID,134,VALID,0.479297,
2009-04-16, 00:31:05,VALID,999.601,VALID,0,VALID,92.2192,VALID,0,VALID,24.0543,VALID,104,VALID,0.557813,
2009-04-16, 00:32:05,VALID,999.582,VALID,0,VALID,92.1506,VALID,0,VALID,24.0543,VALID,104,VALID,0.404297,
2009-04-16, 00:33:05,VALID,999.598,VALID,0,VALID,91.914,VALID,0,VALID,24.0543,VALID,103,VALID,0.854297,
2009-04-16, 00:34:05,VALID,999.565,VALID,0,VALID,91.8683,VALID,0,VALID,24.0329,VALID,101,VALID,0.724219,
2009-04-16, 00:35:05,VALID,999.565,VALID,0,VALID,91.9293,VALID,0,VALID,24.0543,VALID,104,VALID,0.758984,
2009-04-16, 00:36:05,VALID,999.621,VALID,0,VALID,92.1048,VALID,0,VALID,24.0543,VALID,97,VALID,0.599219,
2009-04-16, 00:37:05,VALID,999.583,VALID,0,VALID,92.1887,VALID,0,VALID,24.0543,VALID,100,VALID,0.625391,
2009-04-16, 00:38:05,VALID,999.578,VALID,0,VALID,92.265,VALID,0,VALID,24.0311,VALID,99,VALID,0.456641,
2009-04-16, 00:39:05,VALID,999.591,VALID,0,VALID,92.2955,VALID,0.112286,VALID,24.0311,VALID,97,VALID,0.533594,
2009-04-16, 00:40:05,VALID,999.546,VALID,0,VALID,92.3108,VALID,0.112286,VALID,24.0525,VALID,93,VALID,0.355469,
2009-04-16, 00:41:05,VALID,999.542,VALID,0,VALID,92.4252,VALID,0.112286,VALID,24.0116,VALID,93,VALID,0.435156,
2009-04-16, 00:42:05,VALID,999.559,VALID,0,VALID,92.3337,VALID,0,VALID,24.0116,VALID,113,VALID,0.389453,
2009-04-16, 00:43:05,VALID,999.569,VALID,0,VALID,92.0209,VALID,0,VALID,23.9921,VALID,102,VALID,0.596094,
2009-04-16, 00:44:05,VALID,999.551,VALID,0,VALID,91.9369,VALID,0,VALID,23.9921,VALID,102,VALID,0.40625,
2009-04-16, 00:45:05,VALID,999.549,VALID,0,VALID,91.8759,VALID,0,VALID,23.9921,VALID,103,VALID,0.627344,
2009-04-16, 00:46:05,VALID,999.542,VALID,0,VALID,91.8835,VALID,0,VALID,24.0134,VALID,103,VALID,0.299609,
2009-04-16, 00:47:05,VALID,999.547,VALID,0,VALID,91.6928,VALID,0,VALID,23.9921,VALID,103,VALID,0.362109,
2009-04-16, 00:48:05,VALID,999.525,VALID,0,VALID,91.6165,VALID,0,VALID,24.0116,VALID,85,VALID,0.488672,
2009-04-16, 00:49:05,VALID,999.515,VALID,0,VALID,91.6851,VALID,0,VALID,24.0116,VALID,85,VALID,0.651953,
2009-04-16, 00:50:05,VALID,999.484,VALID,0,VALID,91.6012,VALID,0,VALID,24.0116,VALID,78,VALID,0.523828,
2009-04-16, 00:51:05,VALID,999.51,VALID,0,VALID,91.6012,VALID,0,VALID,24.0116,VALID,52,VALID,0.545703,
2009-04-16, 00:52:05,VALID,999.48,VALID,0,VALID,91.6394,VALID,0,VALID,24.0116,VALID,57,VALID,0.297656,
2009-04-16, 00:53:05,VALID,999.453,VALID,0,VALID,91.7691,VALID,0,VALID,24.0134,VALID,57,VALID,0.536719,
2009-04-16, 00:54:05,VALID,999.444,VALID,0,VALID,91.7462,VALID,0,VALID,24.0543,VALID,57,VALID,0.3875,
2009-04-16, 00:55:05,VALID,999.441,VALID,0,VALID,91.6241,VALID,0,VALID,23.9939,VALID,57,VALID,0.60625,
2009-04-16, 00:56:05,VALID,999.429,VALID,0,VALID,91.3571,VALID,0,VALID,23.9939,VALID,51,VALID,0.872266,
2009-04-16, 00:57:05,VALID,999.43,VALID,0,VALID,91.6775,VALID,0,VALID,24.0329,VALID,50,VALID,0.628906,
2009-04-16, 00:58:05,VALID,999.394,VALID,0,VALID,91.2045,VALID,0,VALID,24.0543,VALID,52,VALID,0.767969,
2009-04-16, 00:59:05,VALID,999.392,VALID,0,VALID,91.3723,VALID,0,VALID,24.0525,VALID,72,VALID,0.526563,
2009-04-16, 01:00:05,VALID,999.416,VALID,0,VALID,91.38,VALID,0,VALID,24.0525,VALID,72,VALID,0.538281,
2009-04-16, 01:01:05,VALID,999.375,VALID,0,VALID,91.5554,VALID,0,VALID,24.0525,VALID,72,VALID,0.396484,
2009-04-16, 01:02:05,VALID,999.394,VALID,0,VALID,91.9369,VALID,0,VALID,24.0738,VALID,72,VALID,0.464453,
2009-04-16, 01:03:05,VALID,999.392,VALID,0,VALID,92.1582,VALID,0,VALID,24.0525,VALID,72,VALID,0.172656,
2009-04-16, 01:04:05,VALID,999.378,VALID,0,VALID,92.3566,VALID,0,VALID,24.0525,VALID,72,VALID,0.271484,
2009-04-16, 01:05:05,VALID,999.392,VALID,0,VALID,92.4786,VALID,0,VALID,24.0329,VALID,72,VALID,0.140234,
2009-04-16, 01:06:05,VALID,999.371,VALID,0,VALID,92.4786,VALID,0,VALID,24.0153,VALID,63,VALID,0.430078,
2009-04-16, 01:07:05,VALID,999.391,VALID,0,VALID,92.5168,VALID,0,VALID,23.9957,VALID,38,VALID,0.253906,
2009-04-16, 01:08:05,VALID,999.388,VALID,0,VALID,92.6312,VALID,0,VALID,23.9957,VALID,38,VALID,0.383203,
2009-04-16, 01:09:05,VALID,999.38,VALID,0,VALID,92.7533,VALID,0,VALID,23.9762,VALID,38,VALID,0.263672,
2009-04-16, 01:10:05,VALID,999.371,VALID,0,VALID,92.8601,VALID,0,VALID,23.9567,VALID,38,VALID,0.449609,
2009-04-16, 01:11:05,VALID,999.388,VALID,0,VALID,92.9059,VALID,0,VALID,23.9567,VALID,38,VALID,0.477734,
2009-04-16, 01:12:05,VALID,999.381,VALID,0,VALID,92.8906,VALID,0,VALID,23.9372,VALID,38,VALID,0.580078,
2009-04-16, 01:13:05,VALID,999.377,VALID,0,VALID,92.9364,VALID,0,VALID,23.9159,VALID,38,VALID,0.552344,
2009-04-16, 01:14:05,VALID,999.397,VALID,0,VALID,92.8677,VALID,0,VALID,23.9177,VALID,38,VALID,0.660937,
2009-04-16, 01:15:05,VALID,999.395,VALID,0,VALID,92.822,VALID,0,VALID,23.9177,VALID,38,VALID,0.690625,
2009-04-16, 01:16:05,VALID,999.392,VALID,0,VALID,92.8906,VALID,0,VALID,23.9177,VALID,38,VALID,0.626172,
2009-04-16, 01:17:05,VALID,999.391,VALID,0,VALID,92.822,VALID,0,VALID,23.9177,VALID,38,VALID,0.607813,
2009-04-16, 01:18:05,VALID,999.392,VALID,0,VALID,92.7304,VALID,0,VALID,23.9177,VALID,38,VALID,0.450781,
2009-04-16, 01:19:05,VALID,999.423,VALID,0,VALID,92.3413,VALID,0,VALID,23.8982,VALID,39,VALID,0.646484,
2009-04-16, 01:20:05,VALID,999.407,VALID,0,VALID,92.1506,VALID,0,VALID,23.8768,VALID,47,VALID,0.442969,
2009-04-16, 01:21:05,VALID,999.404,VALID,0,VALID,92.0437,VALID,0,VALID,23.8963,VALID,68,VALID,0.596094,
2009-04-16, 01:22:05,VALID,999.419,VALID,0,VALID,92.0895,VALID,0,VALID,23.9177,VALID,68,VALID,0.511719,
2009-04-16, 01:23:05,VALID,999.396,VALID,0,VALID,91.7157,VALID,0,VALID,23.9177,VALID,84,VALID,0.742188,
2009-04-16, 01:24:05,VALID,999.393,VALID,0,VALID,91.6241,VALID,0,VALID,23.8963,VALID,91,VALID,0.626953,
2009-04-16, 01:25:05,VALID,999.388,VALID,0,VALID,91.7996,VALID,0,VALID,23.9159,VALID,91,VALID,0.403906,
2009-04-16, 01:26:05,VALID,999.388,VALID,0,VALID,91.8148,VALID,0,VALID,23.9372,VALID,93,VALID,0.593359,
2009-04-16, 01:27:05,VALID,999.381,VALID,0,VALID,91.7538,VALID,0,VALID,23.9177,VALID,93,VALID,0.475781,
2009-04-16, 01:28:05,VALID,999.378,VALID,0,VALID,91.5783,VALID,0,VALID,23.8963,VALID,91,VALID,0.551562,
2009-04-16, 01:29:05,VALID,999.374,VALID,0,VALID,91.4944,VALID,0,VALID,23.8982,VALID,91,VALID,0.311719,
2009-04-16, 01:30:05,VALID,999.36,VALID,0,VALID,91.5936,VALID,0,VALID,23.8982,VALID,91,VALID,0.0585938,
2009-04-16, 01:31:05,VALID,999.378,VALID,0,VALID,91.7004,VALID,0,VALID,23.8982,VALID,91,VALID,0,
2009-04-16, 01:32:05,VALID,999.303,VALID,0,VALID,91.7462,VALID,0,VALID,23.8982,VALID,91,VALID,0,
2009-04-16, 01:33:05,VALID,999.325,VALID,0,VALID,91.7385,VALID,0,VALID,23.8786,VALID,91,VALID,0,
2009-04-16, 01:34:05,VALID,999.33,VALID,0,VALID,91.7843,VALID,0,VALID,23.8573,VALID,91,VALID,0,
2009-04-16, 01:35:05,VALID,999.337,VALID,0,VALID,91.998,VALID,0,VALID,23.8378,VALID,91,VALID,0,
2009-04-16, 01:36:05,VALID,999.318,VALID,0,VALID,92.0895,VALID,0,VALID,23.8396,VALID,91,VALID,0,
2009-04-16, 01:37:05,VALID,999.321,VALID,0,VALID,92.3108,VALID,0,VALID,23.8183,VALID,91,VALID,0.0597656,
2009-04-16, 01:38:05,VALID,999.346,VALID,0,VALID,92.5168,VALID,0,VALID,23.8183,VALID,91,VALID,0,
2009-04-16, 01:39:05,VALID,999.328,VALID,0,VALID,92.5015,VALID,0,VALID,23.8183,VALID,91,VALID,0,
2009-04-16, 01:40:05,VALID,999.345,VALID,0,VALID,92.6846,VALID,0,VALID,23.8201,VALID,91,VALID,0.0179687,
2009-04-16, 01:41:05,VALID,999.343,VALID,0,VALID,92.8677,VALID,0,VALID,23.7988,VALID,91,VALID,0.372266,
2009-04-16, 01:42:05,VALID,999.333,VALID,0,VALID,92.7991,VALID,0,VALID,23.7988,VALID,91,VALID,0.530859,
2009-04-16, 01:43:05,VALID,999.325,VALID,0,VALID,92.616,VALID,0,VALID,23.7793,VALID,92,VALID,0.583203,
2009-04-16, 01:44:05,VALID,999.333,VALID,0,VALID,92.471,VALID,0,VALID,23.8006,VALID,97,VALID,0.631641,
2009-04-16, 01:45:05,VALID,999.319,VALID,0,VALID,92.4176,VALID,0,VALID,23.7988,VALID,103,VALID,0.680469,
2009-04-16, 01:46:05,VALID,999.344,VALID,0,VALID,92.2879,VALID,0,VALID,23.8006,VALID,116,VALID,0.759766,
2009-04-16, 01:47:05,VALID,999.301,VALID,0,VALID,92.2497,VALID,0,VALID,23.7988,VALID,123,VALID,0.698438,
2009-04-16, 01:48:05,VALID,999.301,VALID,0,VALID,92.2192,VALID,0,VALID,23.7988,VALID,127,VALID,0.809766,
2009-04-16, 01:49:05,VALID,999.276,VALID,0,VALID,92.0056,VALID,0,VALID,23.8201,VALID,126,VALID,0.75625,
2009-04-16, 01:50:05,VALID,999.301,VALID,0,VALID,91.9369,VALID,0,VALID,23.8201,VALID,126,VALID,0.541016,
2009-04-16, 01:51:05,VALID,999.28,VALID,0,VALID,91.7996,VALID,0,VALID,23.8201,VALID,126,VALID,0.575781,
2009-04-16, 01:52:05,VALID,999.286,VALID,0,VALID,91.6623,VALID,0,VALID,23.8006,VALID,94,VALID,0.659375,
2009-04-16, 01:53:05,VALID,999.262,VALID,0,VALID,91.6165,VALID,0,VALID,23.8006,VALID,95,VALID,0.316406,
2009-04-16, 01:54:05,VALID,999.202,VALID,0,VALID,91.5402,VALID,0,VALID,23.7988,VALID,99,VALID,0.295312,
2009-04-16, 01:55:05,VALID,999.201,VALID,0,VALID,91.5554,VALID,0,VALID,23.8201,VALID,99,VALID,0.381641,
2009-04-16, 01:56:05,VALID,999.19,VALID,0,VALID,91.5783,VALID,0,VALID,23.7988,VALID,99,VALID,0.306641,
2009-04-16, 01:57:05,VALID,999.141,VALID,0,VALID,91.4334,VALID,0,VALID,23.8201,VALID,99,VALID,0.090625,
2009-04-16, 01:58:05,VALID,999.13,VALID,0,VALID,91.4028,VALID,0,VALID,23.8006,VALID,99,VALID,0.412891,
2009-04-16, 01:59:05,VALID,999.108,VALID,0,VALID,91.5478,VALID,0,VALID,23.7793,VALID,99,VALID,0.121875,
2009-04-16, 02:00:05,VALID,999.101,VALID,0,VALID,91.4715,VALID,0,VALID,23.7793,VALID,99,VALID,0.0515625,
2009-04-16, 02:01:05,VALID,999.087,VALID,0,VALID,91.4028,VALID,0,VALID,23.7597,VALID,99,VALID,0.2125,
2009-04-16, 02:02:05,VALID,999.063,VALID,0,VALID,91.4563,VALID,0,VALID,23.7597,VALID,99,VALID,0.161719,
2009-04-16, 02:03:05,VALID,999.033,VALID,0,VALID,91.6317,VALID,0,VALID,23.7793,VALID,99,VALID,0.203516,
2009-04-16, 02:04:05,VALID,999.029,VALID,0,VALID,91.5097,VALID,0,VALID,23.7811,VALID,99,VALID,0.461328,
2009-04-16, 02:05:05,VALID,999.014,VALID,0,VALID,91.708,VALID,0,VALID,23.7811,VALID,99,VALID,0.317578,
2009-04-16, 02:06:05,VALID,998.99,VALID,0,VALID,91.8683,VALID,0,VALID,23.8006,VALID,99,VALID,0.533203,
2009-04-16, 02:07:05,VALID,999,VALID,0,VALID,91.8148,VALID,0,VALID,23.7793,VALID,98,VALID,0.720703,
2009-04-16, 02:08:05,VALID,999.021,VALID,0,VALID,92.0666,VALID,0,VALID,23.7793,VALID,98,VALID,0.809766,
2009-04-16, 02:09:05,VALID,998.977,VALID,0,VALID,92.12,VALID,0,VALID,23.7597,VALID,99,VALID,0.835938,
2009-04-16, 02:10:05,VALID,998.97,VALID,0,VALID,91.9903,VALID,0,VALID,23.7597,VALID,99,VALID,0.812891,
2009-04-16, 02:11:05,VALID,998.94,VALID,0,VALID,92.2116,VALID,0,VALID,23.7402,VALID,99,VALID,0.632031,
2009-04-16, 02:12:05,VALID,998.921,VALID,0,VALID,92.1582,VALID,0,VALID,23.7402,VALID,103,VALID,0.739062,
2009-04-16, 02:13:05,VALID,998.905,VALID,0,VALID,92.2726,VALID,0,VALID,23.7402,VALID,104,VALID,0.400781,
2009-04-16, 02:14:05,VALID,998.908,VALID,0,VALID,92.2574,VALID,0,VALID,23.742,VALID,104,VALID,0.455078,
2009-04-16, 02:15:05,VALID,998.882,VALID,0,VALID,92.1963,VALID,0,VALID,23.7207,VALID,108,VALID,0.544531,
2009-04-16, 02:16:05,VALID,998.839,VALID,0,VALID,92.2192,VALID,0,VALID,23.7207,VALID,109,VALID,0.09375,
2009-04-16, 02:17:05,VALID,998.839,VALID,0,VALID,92.3413,VALID,0,VALID,23.7225,VALID,109,VALID,0.194531,
2009-04-16, 02:18:05,VALID,998.82,VALID,0,VALID,92.4023,VALID,0,VALID,23.7012,VALID,109,VALID,0.0109375,
2009-04-16, 02:19:05,VALID,998.793,VALID,0,VALID,92.4252,VALID,0,VALID,23.7225,VALID,109,VALID,0.409375,
2009-04-16, 02:20:05,VALID,998.797,VALID,0,VALID,92.4634,VALID,0,VALID,23.6817,VALID,109,VALID,0.513281,
2009-04-16, 02:21:05,VALID,998.799,VALID,0,VALID,92.5397,VALID,0,VALID,23.703,VALID,109,VALID,0.523828,
2009-04-16, 02:22:05,VALID,998.794,VALID,0,VALID,92.532,VALID,0,VALID,23.7225,VALID,109,VALID,0.321484,
2009-04-16, 02:23:05,VALID,998.775,VALID,0,VALID,92.5854,VALID,0,VALID,23.7012,VALID,109,VALID,0.518359,
2009-04-16, 02:24:05,VALID,998.752,VALID,0,VALID,92.6923,VALID,0,VALID,23.7207,VALID,104,VALID,0.487109,
2009-04-16, 02:25:05,VALID,998.77,VALID,0,VALID,92.6541,VALID,0,VALID,23.7207,VALID,88,VALID,0.816016,
2009-04-16, 02:26:05,VALID,998.729,VALID,0,VALID,92.5778,VALID,0,VALID,23.7207,VALID,82,VALID,0.721875,
2009-04-16, 02:27:05,VALID,998.718,VALID,0,VALID,92.4481,VALID,0,VALID,23.7012,VALID,79,VALID,0.835547,
2009-04-16, 02:28:05,VALID,998.71,VALID,0,VALID,92.2497,VALID,0,VALID,23.7207,VALID,69,VALID,0.964453,
2009-04-16, 02:29:05,VALID,998.717,VALID,0,VALID,92.1048,VALID,0,VALID,23.7207,VALID,72,VALID,0.762891,
2009-04-16, 02:30:05,VALID,998.676,VALID,0,VALID,91.8454,VALID,0,VALID,23.7207,VALID,69,VALID,0.921094,
2009-04-16, 02:31:05,VALID,998.66,VALID,0,VALID,91.6317,VALID,0,VALID,23.7402,VALID,72,VALID,0.751172,
2009-04-16, 02:32:05,VALID,998.662,VALID,0,VALID,91.6317,VALID,0,VALID,23.7402,VALID,62,VALID,0.7,
2009-04-16, 02:33:05,VALID,998.614,VALID,0,VALID,91.5173,VALID,0,VALID,23.742,VALID,61,VALID,0.684766,
2009-04-16, 02:34:05,VALID,998.609,VALID,0,VALID,91.6699,VALID,0,VALID,23.7207,VALID,61,VALID,0.598047,
2009-04-16, 02:35:05,VALID,998.592,VALID,0,VALID,91.6851,VALID,0,VALID,23.7207,VALID,61,VALID,0.694141,
2009-04-16, 02:36:05,VALID,998.551,VALID,0,VALID,91.7538,VALID,0,VALID,23.6817,VALID,60,VALID,0.844141,
2009-04-16, 02:37:05,VALID,998.567,VALID,0,VALID,91.8377,VALID,0,VALID,23.7012,VALID,56,VALID,0.764063,
2009-04-16, 02:38:05,VALID,998.556,VALID,0,VALID,91.8835,VALID,0,VALID,23.6817,VALID,49,VALID,0.811719,
2009-04-16, 02:39:05,VALID,998.562,VALID,0,VALID,91.8911,VALID,0,VALID,23.6817,VALID,48,VALID,0.776953,
2009-04-16, 02:40:05,VALID,998.564,VALID,0,VALID,91.8683,VALID,0,VALID,23.6622,VALID,45,VALID,0.805859,
2009-04-16, 02:41:05,VALID,998.537,VALID,0,VALID,92.0285,VALID,0,VALID,23.6622,VALID,45,VALID,0.695313,
2009-04-16, 02:42:05,VALID,998.572,VALID,0,VALID,92.0437,VALID,0,VALID,23.6622,VALID,45,VALID,0.660156,
2009-04-16, 02:43:05,VALID,998.549,VALID,0,VALID,92.12,VALID,0,VALID,23.6232,VALID,45,VALID,0.634766,
2009-04-16, 02:44:04,VALID,998.531,VALID,0,VALID,92.1887,VALID,0,VALID,23.6036,VALID,47,VALID,0.652344,
2009-04-16, 02:45:04,VALID,998.547,VALID,0,VALID,92.1658,VALID,0,VALID,23.6054,VALID,47,VALID,0.380859,
2009-04-16, 02:46:04,VALID,998.542,VALID,0,VALID,92.2497,VALID,0,VALID,23.5646,VALID,47,VALID,0.392188,
2009-04-16, 02:47:04,VALID,998.531,VALID,0,VALID,92.326,VALID,0,VALID,23.5664,VALID,47,VALID,0.307422,
2009-04-16, 02:48:04,VALID,998.503,VALID,0,VALID,92.4328,VALID,0,VALID,23.5061,VALID,47,VALID,0.307031,
2009-04-16, 02:49:04,VALID,998.5,VALID,0,VALID,92.5626,VALID,0,VALID,23.4884,VALID,46,VALID,0.517969,
2009-04-16, 02:50:04,VALID,998.482,VALID,0,VALID,92.6007,VALID,0,VALID,23.4475,VALID,46,VALID,0.443359,
2009-04-16, 02:51:04,VALID,998.476,VALID,0,VALID,92.6694,VALID,0,VALID,23.4688,VALID,46,VALID,0.377344,
2009-04-16, 02:52:04,VALID,998.499,VALID,0,VALID,92.5702,VALID,0,VALID,23.4475,VALID,63,VALID,0.573438,
2009-04-16, 02:53:04,VALID,998.498,VALID,0,VALID,92.5091,VALID,0,VALID,23.4884,VALID,63,VALID,0.533203,
2009-04-16, 02:54:04,VALID,998.48,VALID,0,VALID,92.3794,VALID,0,VALID,23.4866,VALID,65,VALID,0.393359,
2009-04-16, 02:55:04,VALID,998.52,VALID,0,VALID,92.4176,VALID,0,VALID,23.5079,VALID,69,VALID,0.360156,
2009-04-16, 02:56:04,VALID,998.522,VALID,0,VALID,92.3489,VALID,0,VALID,23.5274,VALID,70,VALID,0.360156,
2009-04-16, 02:57:04,VALID,998.527,VALID,0,VALID,92.3337,VALID,0,VALID,23.5274,VALID,89,VALID,0.301172,
2009-04-16, 02:58:04,VALID,998.564,VALID,0,VALID,92.2574,VALID,0,VALID,23.5469,VALID,89,VALID,0.178516,
2009-04-16, 02:59:04,VALID,998.551,VALID,0,VALID,92.326,VALID,0,VALID,23.5256,VALID,89,VALID,0.270312,
2009-04-16, 03:00:04,VALID,998.559,VALID,0,VALID,92.3947,VALID,0,VALID,23.5256,VALID,89,VALID,0.291016,
2009-04-16, 03:01:04,VALID,998.57,VALID,0,VALID,92.5015,VALID,0,VALID,23.5664,VALID,119,VALID,0.448438,
2009-04-16, 03:02:04,VALID,998.582,VALID,0,VALID,92.5854,VALID,0,VALID,23.5256,VALID,144,VALID,0.620703,
2009-04-16, 03:03:04,VALID,998.586,VALID,0,VALID,92.616,VALID,0,VALID,23.5451,VALID,144,VALID,0.648047,
2009-04-16, 03:04:04,VALID,998.565,VALID,0,VALID,92.7075,VALID,0,VALID,23.5664,VALID,144,VALID,0.732422,
2009-04-16, 03:05:04,VALID,998.569,VALID,0,VALID,92.8067,VALID,0,VALID,23.5859,VALID,145,VALID,0.881641,
2009-04-16, 03:06:04,VALID,998.556,VALID,0,VALID,92.7304,VALID,0,VALID,23.5859,VALID,149,VALID,0.860937,
2009-04-16, 03:07:04,VALID,998.574,VALID,0,VALID,92.7304,VALID,0,VALID,23.6054,VALID,150,VALID,0.791406,
2009-04-16, 03:08:04,VALID,998.55,VALID,0,VALID,92.6312,VALID,0,VALID,23.6054,VALID,149,VALID,0.943359,
2009-04-16, 03:09:04,VALID,998.571,VALID,0,VALID,92.5549,VALID,0,VALID,23.6036,VALID,153,VALID,0.846094,
2009-04-16, 03:10:04,VALID,998.569,VALID,0,VALID,92.4786,VALID,0,VALID,23.5841,VALID,150,VALID,0.719141,
2009-04-16, 03:11:04,VALID,998.547,VALID,0,VALID,92.5854,VALID,0,VALID,23.5841,VALID,143,VALID,0.624219,
2009-04-16, 03:12:04,VALID,998.571,VALID,0,VALID,92.5626,VALID,0,VALID,23.625,VALID,143,VALID,0.553906,
2009-04-16, 03:13:04,VALID,998.538,VALID,0,VALID,92.5473,VALID,0,VALID,23.6054,VALID,143,VALID,0.526953,
2009-04-16, 03:14:04,VALID,998.547,VALID,0,VALID,92.5702,VALID,0,VALID,23.6036,VALID,143,VALID,0.483594,
2009-04-16, 03:15:04,VALID,998.546,VALID,0,VALID,92.5626,VALID,0,VALID,23.5841,VALID,143,VALID,0.323828,
2009-04-16, 03:16:04,VALID,998.569,VALID,0,VALID,92.5473,VALID,0,VALID,23.5841,VALID,143,VALID,0.162109,
2009-04-16, 03:17:04,VALID,998.56,VALID,0,VALID,92.5778,VALID,0,VALID,23.5859,VALID,143,VALID,0.317187,
2009-04-16, 03:18:04,VALID,998.562,VALID,0,VALID,92.6694,VALID,0,VALID,23.5646,VALID,143,VALID,0.302734,
2009-04-16, 03:19:04,VALID,998.562,VALID,0,VALID,92.6923,VALID,0,VALID,23.5451,VALID,143,VALID,0.383594,
2009-04-16, 03:20:04,VALID,998.576,VALID,0,VALID,92.7838,VALID,0,VALID,23.5274,VALID,143,VALID,0.455859,
2009-04-16, 03:21:04,VALID,998.591,VALID,0,VALID,92.9288,VALID,0,VALID,23.5061,VALID,140,VALID,0.548437,
2009-04-16, 03:22:04,VALID,998.603,VALID,0,VALID,92.944,VALID,0,VALID,23.5061,VALID,133,VALID,0.555469,
2009-04-16, 03:23:04,VALID,998.614,VALID,0,VALID,92.9822,VALID,0,VALID,23.4671,VALID,133,VALID,0.627734,
2009-04-16, 03:24:04,VALID,998.615,VALID,0,VALID,93.0127,VALID,0,VALID,23.4475,VALID,133,VALID,0.585938,
2009-04-16, 03:25:04,VALID,998.607,VALID,0,VALID,93.0737,VALID,0,VALID,23.428,VALID,133,VALID,0.596875,
2009-04-16, 03:26:04,VALID,998.621,VALID,0,VALID,93.1195,VALID,0,VALID,23.4298,VALID,133,VALID,0.594531,
2009-04-16, 03:27:04,VALID,998.625,VALID,0,VALID,93.1805,VALID,0,VALID,23.3695,VALID,133,VALID,0.483594,
2009-04-16, 03:28:04,VALID,998.63,VALID,0,VALID,93.2721,VALID,0,VALID,23.3695,VALID,133,VALID,0.408203,
2009-04-16, 03:29:04,VALID,998.595,VALID,0,VALID,93.3637,VALID,0,VALID,23.35,VALID,133,VALID,0.461719,
2009-04-16, 03:30:04,VALID,998.606,VALID,0,VALID,93.4705,VALID,0,VALID,23.3305,VALID,133,VALID,0.49375,
2009-04-16, 03:31:04,VALID,998.614,VALID,0,VALID,93.5849,VALID,0,VALID,23.3127,VALID,133,VALID,0.476953,
2009-04-16, 03:32:04,VALID,998.591,VALID,0,VALID,93.6688,VALID,0,VALID,23.2915,VALID,133,VALID,0.517187,
2009-04-16, 03:33:04,VALID,998.583,VALID,0,VALID,93.707,VALID,0,VALID,23.2737,VALID,121,VALID,0.4875,
2009-04-16, 03:34:04,VALID,998.58,VALID,0,VALID,93.6612,VALID,0,VALID,23.2542,VALID,103,VALID,0.338281,
2009-04-16, 03:35:04,VALID,998.603,VALID,0,VALID,93.7909,VALID,0,VALID,23.2329,VALID,103,VALID,0.316797,
2009-04-16, 03:36:04,VALID,998.586,VALID,0,VALID,93.8367,VALID,0,VALID,23.2134,VALID,103,VALID,0.345703,
2009-04-16, 03:37:04,VALID,998.601,VALID,0,VALID,93.9359,VALID,0,VALID,23.1957,VALID,103,VALID,0.364453,
2009-04-16, 03:38:04,VALID,998.634,VALID,0,VALID,93.8977,VALID,0,VALID,23.1957,VALID,103,VALID,0.378906,
2009-04-16, 03:39:04,VALID,998.631,VALID,0,VALID,93.9664,VALID,0,VALID,23.1566,VALID,62,VALID,0.587891,
2009-04-16, 03:40:04,VALID,998.685,VALID,0,VALID,94.0122,VALID,0,VALID,23.1159,VALID,47,VALID,0.733594,
2009-04-16, 03:41:04,VALID,998.691,VALID,0,VALID,94.0808,VALID,0,VALID,23.0981,VALID,47,VALID,0.721875,
2009-04-16, 03:42:04,VALID,998.71,VALID,0,VALID,94.1877,VALID,0,VALID,23.0769,VALID,47,VALID,0.703516,
2009-04-16, 03:43:04,VALID,998.708,VALID,0,VALID,94.2868,VALID,0,VALID,23.0786,VALID,47,VALID,0.646875,
2009-04-16, 03:44:04,VALID,998.726,VALID,0,VALID,94.3479,VALID,0,VALID,23.0769,VALID,47,VALID,0.49375,
2009-04-16, 03:45:04,VALID,998.743,VALID,0,VALID,94.2334,VALID,0,VALID,23.0183,VALID,47,VALID,0.400391,
2009-04-16, 03:46:04,VALID,998.726,VALID,0,VALID,94.2716,VALID,0,VALID,23.0396,VALID,47,VALID,0.367969,